{"data":{"norad_id":61617,"epoch":"2026-09-22T12:34:12.691200Z","epoch_age_seconds":122528,"freshness":"FRESH","line1":"1 61617U 24190A   26265.52375800  .00003832  00000+0  16080-3 0  9991","line2":"2 61617  34.9915 305.5156 0004282 149.0547 211.0420 15.22934390106718","mean_motion":15.2293439,"eccentricity":0.0004282,"inclination_deg":34.9915,"raan_deg":305.5156,"arg_perigee_deg":149.0547,"mean_anomaly_deg":211.042,"bstar":0.0001608,"rev_number":10671,"period_min":94.554303156816,"perigee_km":494.0511413055,"apogee_km":499.93900441269,"semimajor_km":6875.1320728591,"source":"CELESTRAK","updated_at":"2026-09-23T09:00:20.956418Z"}}